TimeCST,TemperatureF,Dew PointF,Humidity,Sea Level PressureIn,VisibilityMPH,Wind Direction,Wind SpeedMPH,Gust SpeedMPH,PrecipitationIn,Events,Conditions,WindDirDegrees,DateUTC
12:53 AM,32.0,28.0,85,30.32,10.0,North,4.6,-,N/A,,Clear,10,2013-03-08 06:53:00
1:53 AM,30.9,27.0,85,30.31,9.0,NNE,4.6,-,N/A,,Clear,30,2013-03-08 07:53:00
2:53 AM,30.9,27.0,85,30.30,9.0,NNE,5.8,-,N/A,,Clear,30,2013-03-08 08:53:00
3:53 AM,28.9,25.0,85,30.32,7.0,Calm,Calm,-,N/A,,Clear,0,2013-03-08 09:53:00
4:53 AM,30.0,26.1,85,30.34,8.0,Calm,Calm,-,N/A,,Unknown,0,2013-03-08 10:53:00
5:53 AM,28.0,25.0,88,30.33,8.0,NE,4.6,-,N/A,,Clear,50,2013-03-08 11:53:00
6:53 AM,32.0,28.0,85,30.35,7.0,NE,3.5,-,N/A,,Clear,40,2013-03-08 12:53:00
7:53 AM,36.0,30.0,79,30.37,8.0,Calm,Calm,-,N/A,,Clear,0,2013-03-08 13:53:00
8:53 AM,39.2,30.2,70,30.38,9.0,Variable,3.5,-,N/A,,Clear,0,2013-03-08 14:53:00
9:53 AM,46.0,30.9,56,30.38,10.0,Calm,Calm,-,N/A,,Clear,0,2013-03-08 15:53:00
10:53 AM,48.9,32.0,52,30.37,10.0,Variable,3.5,-,N/A,,Clear,0,2013-03-08 16:53:00
11:53 AM,55.9,23.0,28,30.33,10.0,East,10.4,-,N/A,,Clear,80,2013-03-08 17:53:00
12:58 PM,57.9,25.0,28,30.30,10.0,NNE,5.8,-,N/A,,Clear,30,2013-03-08 18:58:00
1:53 PM,61.0,25.0,25,30.29,10.0,NW,6.9,-,N/A,,Partly Cloudy,310,2013-03-08 19:53:00
2:53 PM,62.1,21.9,21,30.27,10.0,NNW,5.8,-,N/A,,Partly Cloudy,340,2013-03-08 20:53:00
3:53 PM,63.0,24.1,23,30.26,10.0,NE,4.6,-,N/A,,Partly Cloudy,50,2013-03-08 21:53:00
4:53 PM,62.1,26.1,25,30.26,10.0,NNW,4.6,-,N/A,,Partly Cloudy,340,2013-03-08 22:53:00
5:53 PM,57.0,27.0,32,30.27,10.0,North,4.6,-,N/A,,Partly Cloudy,360,2013-03-08 23:53:00
6:53 PM,54.0,27.0,35,30.27,10.0,North,3.5,-,N/A,,Clear,350,2013-03-09 00:53:00
7:53 PM,51.1,27.0,39,30.27,10.0,North,4.6,-,N/A,,Partly Cloudy,10,2013-03-09 01:53:00
8:53 PM,48.0,28.0,46,30.25,10.0,NE,6.9,-,N/A,,Partly Cloudy,50,2013-03-09 02:53:00
9:53 PM,46.0,28.9,51,30.26,10.0,NNE,3.5,-,N/A,,Partly Cloudy,30,2013-03-09 03:53:00
10:53 PM,45.0,28.9,53,30.25,10.0,ENE,5.8,-,N/A,,Partly Cloudy,70,2013-03-09 04:53:00
11:53 PM,44.1,27.0,51,30.23,10.0,East,3.5,-,N/A,,Partly Cloudy,100,2013-03-09 05:53:00